Starlink 30714

operational
NORAD ID: 57939 Int'l Des: 2023-148 Owner: SPXS Country: US Constellation: starlink
LEOCIRCULAR

Starlink 30714について

説明を読み込み中...

リアルタイム位置

3D地球を読み込み中...

次回通過

高度履歴

Altitude vs Time

uPlot chart will show altitude changes over time

軌道要素

1 57939U 23148E 25351.55939019 -.00000958 00000-0 -20238-4 0 9991
2 57939 53.1604 45.9721 0001160 84.3557 275.7576 15.30192407125843
Epoch: Dec 17, 2025 • Age: 8 hours

現在のステータス

高度 493.8 km
速度 7.62 km/s
衛星直下点 -51.38°S, 65°W
打ち上げ日 Sep 25, 2023
運用期間 2.2 years
タイプ internet

技術仕様

分類 Payload
質量 730.00 kg
乾燥質量 700.00 kg
総質量 730.00 kg
長さ 0.30 m
直径 4.10 m
スパン 29.00 m
形状 Box + pan
製造者 SPXS
バスタイプ Starlink V2M
フェーズステータス In Orbit
所有者/国 SPXS/US

大規模コンステレーション

Loading constellations...